﻿測定場所 (Monitoring sites),日付 (Measurement date),時間 (Measurement time),線量率 最大値 (max) μGy/h,線量率 最小値 (min) μGy/h,線量率 平均値 (average) μGy/h,
新宿 (Shinjuku),2011-12-25,23:00～23:59,0.0546,0.0500,0.0525,
新宿 (Shinjuku),2011-12-25,22:00～22:59,0.0554,0.0513,0.0532,
新宿 (Shinjuku),2011-12-25,21:00～21:59,0.0558,0.0496,0.0528,
新宿 (Shinjuku),2011-12-25,20:00～20:59,0.0562,0.0497,0.0529,
新宿 (Shinjuku),2011-12-25,19:00～19:59,0.0550,0.0509,0.0530,
新宿 (Shinjuku),2011-12-25,18:00～18:59,0.0555,0.0486,0.0527,
新宿 (Shinjuku),2011-12-25,17:00～17:59,0.0551,0.0501,0.0525,
新宿 (Shinjuku),2011-12-25,16:00～16:59,0.0544,0.0508,0.0526,
新宿 (Shinjuku),2011-12-25,15:00～15:59,0.0553,0.0492,0.0524,
新宿 (Shinjuku),2011-12-25,14:00～14:59,0.0552,0.0513,0.0529,
新宿 (Shinjuku),2011-12-25,13:00～13:59,0.0548,0.0496,0.0525,
新宿 (Shinjuku),2011-12-25,12:00～12:59,0.0552,0.0495,0.0527,
新宿 (Shinjuku),2011-12-25,11:00～11:59,0.0549,0.0506,0.0528,
新宿 (Shinjuku),2011-12-25,10:00～10:59,0.0564,0.0496,0.0529,
新宿 (Shinjuku),2011-12-25,09:00～09:59,0.0553,0.0500,0.0528,
新宿 (Shinjuku),2011-12-25,08:00～08:59,0.0562,0.0503,0.0529,
新宿 (Shinjuku),2011-12-25,07:00～07:59,0.0550,0.0506,0.0529,
新宿 (Shinjuku),2011-12-25,06:00～06:59,0.0550,0.0506,0.0528,
新宿 (Shinjuku),2011-12-25,05:00～05:59,0.0553,0.0503,0.0531,
新宿 (Shinjuku),2011-12-25,04:00～04:59,0.0560,0.0503,0.0530,
新宿 (Shinjuku),2011-12-25,03:00～03:59,0.0558,0.0504,0.0532,
新宿 (Shinjuku),2011-12-25,02:00～02:59,0.0558,0.0509,0.0532,
新宿 (Shinjuku),2011-12-25,01:00～01:59,0.0562,0.0517,0.0536,
新宿 (Shinjuku),2011-12-25,00:00～00:59,0.0557,0.0507,0.0534,
新宿 (Shinjuku),2011-12-24,23:00～23:59,0.0563,0.0499,0.0532,
新宿 (Shinjuku),2011-12-24,22:00～22:59,0.0557,0.0503,0.0528,
新宿 (Shinjuku),2011-12-24,21:00～21:59,0.0556,0.0509,0.0530,
新宿 (Shinjuku),2011-12-24,20:00～20:59,0.0560,0.0496,0.0526,
新宿 (Shinjuku),2011-12-24,19:00～19:59,0.0545,0.0499,0.0524,
新宿 (Shinjuku),2011-12-24,18:00～18:59,0.0551,0.0506,0.0528,
新宿 (Shinjuku),2011-12-24,17:00～17:59,0.0554,0.0501,0.0526,
新宿 (Shinjuku),2011-12-24,16:00～16:59,0.0548,0.0492,0.0523,
新宿 (Shinjuku),2011-12-24,15:00～15:59,0.0544,0.0489,0.0522,
新宿 (Shinjuku),2011-12-24,14:00～14:59,0.0548,0.0487,0.0525,
新宿 (Shinjuku),2011-12-24,13:00～13:59,0.0548,0.0499,0.0526,
新宿 (Shinjuku),2011-12-24,12:00～12:59,0.0551,0.0499,0.0524,
新宿 (Shinjuku),2011-12-24,11:00～11:59,0.0553,0.0496,0.0526,
新宿 (Shinjuku),2011-12-24,10:00～10:59,0.0547,0.0494,0.0526,
新宿 (Shinjuku),2011-12-24,09:00～09:59,0.0552,0.0501,0.0527,
新宿 (Shinjuku),2011-12-24,08:00～08:59,0.0544,0.0505,0.0527,
新宿 (Shinjuku),2011-12-24,07:00～07:59,0.0553,0.0504,0.0528,
新宿 (Shinjuku),2011-12-24,06:00～06:59,0.0556,0.0499,0.0525,
新宿 (Shinjuku),2011-12-24,05:00～05:59,0.0570,0.0498,0.0527,
新宿 (Shinjuku),2011-12-24,04:00～04:59,0.0555,0.0501,0.0529,
新宿 (Shinjuku),2011-12-24,03:00～03:59,0.0556,0.0503,0.0529,
新宿 (Shinjuku),2011-12-24,02:00～02:59,0.0558,0.0500,0.0529,
新宿 (Shinjuku),2011-12-24,01:00～01:59,0.0558,0.0504,0.0530,
新宿 (Shinjuku),2011-12-24,00:00～00:59,0.0554,0.0507,0.0529,
新宿 (Shinjuku),2011-12-23,23:00～23:59,0.0571,0.0503,0.0528,
新宿 (Shinjuku),2011-12-23,22:00～22:59,0.0565,0.0504,0.0525,
新宿 (Shinjuku),2011-12-23,21:00～21:59,0.0551,0.0494,0.0526,
新宿 (Shinjuku),2011-12-23,20:00～20:59,0.0552,0.0506,0.0530,
新宿 (Shinjuku),2011-12-23,19:00～19:59,0.0550,0.0497,0.0526,
新宿 (Shinjuku),2011-12-23,18:00～18:59,0.0559,0.0501,0.0527,
新宿 (Shinjuku),2011-12-23,17:00～17:59,0.0551,0.0508,0.0529,
新宿 (Shinjuku),2011-12-23,16:00～16:59,0.0547,0.0508,0.0526,
新宿 (Shinjuku),2011-12-23,15:00～15:59,0.0556,0.0496,0.0523,
新宿 (Shinjuku),2011-12-23,14:00～14:59,0.0555,0.0493,0.0526,
新宿 (Shinjuku),2011-12-23,13:00～13:59,0.0553,0.0496,0.0525,
新宿 (Shinjuku),2011-12-23,12:00～12:59,0.0559,0.0501,0.0526,
新宿 (Shinjuku),2011-12-23,11:00～11:59,0.0548,0.0503,0.0524,
新宿 (Shinjuku),2011-12-23,10:00～10:59,0.0558,0.0495,0.0528,
新宿 (Shinjuku),2011-12-23,09:00～09:59,0.0544,0.0503,0.0527,
新宿 (Shinjuku),2011-12-23,08:00～08:59,0.0558,0.0499,0.0528,
新宿 (Shinjuku),2011-12-23,07:00～07:59,0.0548,0.0493,0.0526,
新宿 (Shinjuku),2011-12-23,06:00～06:59,0.0556,0.0502,0.0530,
新宿 (Shinjuku),2011-12-23,05:00～05:59,0.0552,0.0512,0.0531,
新宿 (Shinjuku),2011-12-23,04:00～04:59,0.0555,0.0509,0.0533,
新宿 (Shinjuku),2011-12-23,03:00～03:59,0.0558,0.0505,0.0531,
新宿 (Shinjuku),2011-12-23,02:00～02:59,0.0558,0.0509,0.0530,
新宿 (Shinjuku),2011-12-23,01:00～01:59,0.0565,0.0514,0.0537,
新宿 (Shinjuku),2011-12-23,00:00～00:59,0.0565,0.0509,0.0536,
新宿 (Shinjuku),2011-12-22,23:00～23:59,0.0563,0.0513,0.0538,
新宿 (Shinjuku),2011-12-22,22:00～22:59,0.0558,0.0511,0.0536,
新宿 (Shinjuku),2011-12-22,21:00～21:59,0.0552,0.0509,0.0531,
新宿 (Shinjuku),2011-12-22,20:00～20:59,0.0562,0.0513,0.0534,
新宿 (Shinjuku),2011-12-22,19:00～19:59,0.0553,0.0508,0.0535,
新宿 (Shinjuku),2011-12-22,18:00～18:59,0.0562,0.0509,0.0535,
新宿 (Shinjuku),2011-12-22,17:00～17:59,0.0556,0.0512,0.0533,
新宿 (Shinjuku),2011-12-22,16:00～16:59,0.0568,0.0512,0.0538,
新宿 (Shinjuku),2011-12-22,15:00～15:59,0.0572,0.0520,0.0544,
新宿 (Shinjuku),2011-12-22,14:00～14:59,0.0573,0.0512,0.0542,
新宿 (Shinjuku),2011-12-22,13:00～13:59,0.0561,0.0509,0.0541,
新宿 (Shinjuku),2011-12-22,12:00～12:59,0.0576,0.0515,0.0539,
新宿 (Shinjuku),2011-12-22,11:00～11:59,0.0560,0.0519,0.0541,
新宿 (Shinjuku),2011-12-22,10:00～10:59,0.0571,0.0523,0.0546,
新宿 (Shinjuku),2011-12-22,09:00～09:59,0.0573,0.0514,0.0544,
新宿 (Shinjuku),2011-12-22,08:00～08:59,0.0581,0.0519,0.0544,
新宿 (Shinjuku),2011-12-22,07:00～07:59,0.0565,0.0511,0.0542,
新宿 (Shinjuku),2011-12-22,06:00～06:59,0.0561,0.0510,0.0536,
新宿 (Shinjuku),2011-12-22,05:00～05:59,0.0563,0.0504,0.0536,
新宿 (Shinjuku),2011-12-22,04:00～04:59,0.0565,0.0507,0.0533,
新宿 (Shinjuku),2011-12-22,03:00～03:59,0.0559,0.0501,0.0533,
新宿 (Shinjuku),2011-12-22,02:00～02:59,0.0562,0.0500,0.0531,
新宿 (Shinjuku),2011-12-22,01:00～01:59,0.0558,0.0501,0.0532,
新宿 (Shinjuku),2011-12-22,00:00～00:59,0.0563,0.0512,0.0537,
新宿 (Shinjuku),2011-12-21,23:00～23:59,0.0556,0.0508,0.0534,
新宿 (Shinjuku),2011-12-21,22:00～22:59,0.0557,0.0511,0.0531,
新宿 (Shinjuku),2011-12-21,21:00～21:59,0.0555,0.0507,0.0529,
新宿 (Shinjuku),2011-12-21,20:00～20:59,0.0557,0.0503,0.0532,
新宿 (Shinjuku),2011-12-21,19:00～19:59,0.0549,0.0503,0.0529,
新宿 (Shinjuku),2011-12-21,18:00～18:59,0.0560,0.0508,0.0533,
新宿 (Shinjuku),2011-12-21,17:00～17:59,0.0549,0.0494,0.0528,
新宿 (Shinjuku),2011-12-21,16:00～16:59,0.0562,0.0496,0.0531,
新宿 (Shinjuku),2011-12-21,15:00～15:59,0.0558,0.0510,0.0532,
新宿 (Shinjuku),2011-12-21,14:00～14:59,0.0550,0.0508,0.0528,
新宿 (Shinjuku),2011-12-21,13:00～13:59,0.0561,0.0512,0.0531,
新宿 (Shinjuku),2011-12-21,12:00～12:59,0.0552,0.0508,0.0532,
新宿 (Shinjuku),2011-12-21,11:00～11:59,0.0556,0.0508,0.0534,
新宿 (Shinjuku),2011-12-21,10:00～10:59,0.0555,0.0513,0.0537,
新宿 (Shinjuku),2011-12-21,09:00～09:59,0.0563,0.0517,0.0538,
新宿 (Shinjuku),2011-12-21,08:00～08:59,0.0566,0.0516,0.0536,
新宿 (Shinjuku),2011-12-21,07:00～07:59,0.0569,0.0514,0.0535,
新宿 (Shinjuku),2011-12-21,06:00～06:59,0.0565,0.0504,0.0533,
新宿 (Shinjuku),2011-12-21,05:00～05:59,0.0555,0.0495,0.0534,
新宿 (Shinjuku),2011-12-21,04:00～04:59,0.0557,0.0503,0.0531,
新宿 (Shinjuku),2011-12-21,03:00～03:59,0.0568,0.0497,0.0531,
新宿 (Shinjuku),2011-12-21,02:00～02:59,0.0561,0.0509,0.0530,
新宿 (Shinjuku),2011-12-21,01:00～01:59,0.0558,0.0499,0.0532,
新宿 (Shinjuku),2011-12-21,00:00～00:59,0.0563,0.0497,0.0530,
新宿 (Shinjuku),2011-12-20,23:00～23:59,0.0551,0.0511,0.0530,
新宿 (Shinjuku),2011-12-20,22:00～22:59,0.0551,0.0502,0.0528,
新宿 (Shinjuku),2011-12-20,21:00～21:59,0.0556,0.0500,0.0529,
新宿 (Shinjuku),2011-12-20,20:00～20:59,0.0550,0.0491,0.0528,
新宿 (Shinjuku),2011-12-20,19:00～19:59,0.0550,0.0494,0.0525,
新宿 (Shinjuku),2011-12-20,18:00～18:59,0.0551,0.0501,0.0525,
新宿 (Shinjuku),2011-12-20,17:00～17:59,0.0558,0.0491,0.0522,
新宿 (Shinjuku),2011-12-20,16:00～16:59,0.0546,0.0498,0.0525,
新宿 (Shinjuku),2011-12-20,15:00～15:59,0.0542,0.0489,0.0522,
新宿 (Shinjuku),2011-12-20,14:00～14:59,0.0549,0.0500,0.0523,
新宿 (Shinjuku),2011-12-20,13:00～13:59,0.0550,0.0496,0.0523,
新宿 (Shinjuku),2011-12-20,12:00～12:59,0.0558,0.0497,0.0524,
新宿 (Shinjuku),2011-12-20,11:00～11:59,0.0556,0.0494,0.0525,
新宿 (Shinjuku),2011-12-20,10:00～10:59,0.0557,0.0493,0.0524,
新宿 (Shinjuku),2011-12-20,09:00～09:59,0.0555,0.0503,0.0526,
新宿 (Shinjuku),2011-12-20,08:00～08:59,0.0558,0.0513,0.0530,
新宿 (Shinjuku),2011-12-20,07:00～07:59,0.0543,0.0503,0.0525,
新宿 (Shinjuku),2011-12-20,06:00～06:59,0.0550,0.0502,0.0525,
新宿 (Shinjuku),2011-12-20,05:00～05:59,0.0549,0.0494,0.0528,
新宿 (Shinjuku),2011-12-20,04:00～04:59,0.0555,0.0499,0.0528,
新宿 (Shinjuku),2011-12-20,03:00～03:59,0.0556,0.0496,0.0527,
新宿 (Shinjuku),2011-12-20,02:00～02:59,0.0555,0.0503,0.0529,
新宿 (Shinjuku),2011-12-20,01:00～01:59,0.0552,0.0506,0.0534,
新宿 (Shinjuku),2011-12-20,00:00～00:59,0.0555,0.0511,0.0533,
新宿 (Shinjuku),2011-12-19,23:00～23:59,0.0554,0.0509,0.0533,
新宿 (Shinjuku),2011-12-19,22:00～22:59,0.0556,0.0509,0.0531,
新宿 (Shinjuku),2011-12-19,21:00～21:59,0.0551,0.0509,0.0530,
新宿 (Shinjuku),2011-12-19,20:00～20:59,0.0558,0.0503,0.0528,
新宿 (Shinjuku),2011-12-19,19:00～19:59,0.0548,0.0507,0.0527,
新宿 (Shinjuku),2011-12-19,18:00～18:59,0.0553,0.0497,0.0523,
新宿 (Shinjuku),2011-12-19,17:00～17:59,0.0545,0.0504,0.0522,
新宿 (Shinjuku),2011-12-19,16:00～16:59,0.0542,0.0493,0.0521,
新宿 (Shinjuku),2011-12-19,15:00～15:59,0.0555,0.0503,0.0525,
新宿 (Shinjuku),2011-12-19,14:00～14:59,0.0551,0.0494,0.0528,
新宿 (Shinjuku),2011-12-19,13:00～13:59,0.0551,0.0503,0.0526,
新宿 (Shinjuku),2011-12-19,12:00～12:59,0.0551,0.0493,0.0524,
新宿 (Shinjuku),2011-12-19,11:00～11:59,0.0559,0.0498,0.0528,
新宿 (Shinjuku),2011-12-19,10:00～10:59,0.0562,0.0511,0.0535,
新宿 (Shinjuku),2011-12-19,09:00～09:59,0.0561,0.0513,0.0538,
新宿 (Shinjuku),2011-12-19,08:00～08:59,0.0635,0.0514,0.0535,
新宿 (Shinjuku),2011-12-19,07:00～07:59,0.0556,0.0503,0.0530,
新宿 (Shinjuku),2011-12-19,06:00～06:59,0.0567,0.0506,0.0533,
新宿 (Shinjuku),2011-12-19,05:00～05:59,0.0562,0.0509,0.0534,
新宿 (Shinjuku),2011-12-19,04:00～04:59,0.0557,0.0508,0.0529,
新宿 (Shinjuku),2011-12-19,03:00～03:59,0.0551,0.0503,0.0529,
新宿 (Shinjuku),2011-12-19,02:00～02:59,0.0553,0.0508,0.0529,
新宿 (Shinjuku),2011-12-19,01:00～01:59,0.0552,0.0505,0.0528,
新宿 (Shinjuku),2011-12-19,00:00～00:59,0.0558,0.0508,0.0531,
